This demonstration page uses our WeatherBlox Daily Observations layout. Learn more.

38.89511, -77.03637

Hourly Observations for January 8, 2018

Temp ( °F °C ) Dew Point ( °F °C ) Humidity (%) Winds ( mph kmh ) Pressure ( in mb ) Visibility ( mi km ) Precip ( " mm )
12:52 am 00:52 Cloudy 20 -6.7 1 -17.2 43 43 SSW 10 17 30.39 1029 10 16.0934 0 0
1:52 am 01:52 Cloudy 19 -7.2 1 -17.2 45 45 SSW 9 15 30.37 1029 10 16.0934 0 0
2:52 am 02:52 Cloudy 20 -6.7 2 -16.7 45 45 S 8 13 30.35 1028 10 16.0934 0 0
3:52 am 03:52 Cloudy 20 -6.7 4 -15.6 50 50 S 9 15 30.31 1027 10 16.0934 0 0
4:52 am 04:52 Cloudy 20 -6.7 3 -16.1 48 48 S 8 13 30.3 1026 10 16.0934 0 0
5:52 am 05:52 Mostly Cloudy 21 -6.1 3 -16.1 45 45 S 10 17 30.29 1026 10 16.0934 0 0
6:52 am 06:52 Mostly Cloudy 21 -6.1 3 -16.1 45 45 SSW 9 15 30.28 1026 10 16.0934 0 0
7:52 am 07:52 Mostly Sunny 21 -6.1 4 -15.6 47 47 SSW 10 17 30.26 1025 10 16.0934 0 0
8:52 am 08:52 Cloudy 24 -4.4 5 -15 44 44 S 9 15 30.26 1025 10 16.0934 0 0
9:52 am 09:52 Cloudy 26 -3.3 6 -14.4 42 42 SSW 8 13 30.26 1025 10 16.0934 0 0
10:52 am 10:52 Cloudy 30 -1.1 10 -12.2 43 43 S 12 19 30.25 1024 10 16.0934 0 0
11:52 am 11:52 Cloudy 32 0 8 -13.3 36 36 SSW 7 11 30.22 1023 10 16.0934 0 0
12:52 pm 12:52 Cloudy 34 1.1 8 -13.3 34 34 SSW 9 15 30.2 1023 10 16.0934 0 0
1:25 pm 13:25 Cloudy 35 1.7 10 -12.2 35 35 SSW 9 15 30.21 1023 10 16.0934 0 0.0254
1:52 pm 13:52 Cloudy 36 2.2 12 -11.1 37 37 S 7 11 30.17 1022 10 16.0934 0 0.0254
2:52 pm 14:52 Cloudy with Light Rain 36 2.2 18 -7.8 48 48 S 12 19 30.14 1021 10 16.0934 0 0.0254
3:52 pm 15:52 Cloudy 35 1.7 19 -7.2 52 52 SSW 9 15 30.16 1021 10 16.0934 0 0.0254
4:52 pm 16:52 Cloudy 34 1.1 26 -3.3 73 73 S 8 13 30.15 1021 10 16.0934 0 0.0254
5:52 pm 17:52 Cloudy with Light Rain 34 1.1 29 -1.7 82 82 S 8 13 30.13 1020 10 16.0934 0.01 0.254
6:52 pm 18:52 Cloudy with Light Rain 35 1.7 32 0 89 89 SSW 5 7 30.13 1020 10 16.0934 0.01 0.254
7:52 pm 19:52 Cloudy with Light Rain 37 2.8 35 1.7 93 93 SSW 7 11 30.13 1020 10 16.0934 0.02 0.508
8:52 pm 20:52 Cloudy with Light Rain 38 3.3 37 2.8 97 97 SSW 7 11 30.12 1020 10 16.0934 0.02 0.508
9:32 pm 21:32 Cloudy 38 3.3 37 2.8 97 97 SSW 8 13 30.12 1020 10 16.0934 0 0.0254
9:52 pm 21:52 Cloudy 39 3.9 37 2.8 93 93 S 10 17 30.11 1020 10 16.0934 0 0.0254
10:10 pm 22:10 Cloudy 37 2.8 36 2.2 96 96 S 8 13 30.09 1019 9 14.48406 0 0
10:21 pm 22:21 Mostly Cloudy 37 2.8 36 2.2 96 96 S 9 15 30.09 1019 8 12.87472 0 0
10:24 pm 22:24 Mostly Cloudy 36 2.2 35 1.7 97 97 S 9 15 30.09 1019 8 12.87472 0 0
10:52 pm 22:52 Cloudy 38 3.3 37 2.8 97 97 SSW 5 7 30.09 1019 10 16.0934 0 0
11:52 pm 23:52 Mostly Cloudy 38 3.3 37 2.8 97 97 SSW 7 11 30.09 1019 10 16.0934 0 0

Powered by AerisWeather